THOR ABLESTAR DEB, 1504

Orbit data source: Space-Track

THOR ABLESTAR DEB, 1504 is space debris in LEO originally from a launch on Fri, 13 Aug 1965 UTC launched from the Air Force Western Test Range (AFWTR). Debris objects in space refer to the collection of defunct objects orbiting the Earth. Examples of debris include non-operational satellites, rocket bodies, and fragments generated from explosions, collisions, or faulty payload assembly.

Loading next visibility...
Identifier
1504, 1965-065A
Orbit
LEO
Last TLE update
11 hours ago
Origin
Manufacturer
NRL
Mission
Spacecraft
Bus & Motor
Unknown
Mass
Unknown
Launch date (UTC)
1965-08-13 (60 years ago)
Launch vehicle
Unknown
Launch site
Air Force Western Test Range (AFWTR)
Object type
Payload
Rocket body
Debris
Shape & HBR
Unknown
Radar Cross Section
Small (<0.1 m²)

Expand to show TLE details & history

TLE from 11 hours ago
0 THOR ABLESTAR DEB
1 01504U 65065A   25182.59591874  .00000115  00000-0  19016-3 0  9995
2 01504  89.9440 243.2638 0068688 133.0657 355.2602 13.40253630920747
Epoch: 2025-07-01T14:18Z
TLE epoch observation values (Epoch: 2025-07-01T14:18:07.379Z)
Latitude
51.83422°
Longitude
-71.22694°
Altitude
1,065.524 km
Speed
7.349 km/s
True Right ascension
04h 12m 46s
True Declination
51° 40' 26"
Sunlit
Object was in daylight at epoch
Visualization orbit readout
Latitude
-82.74116°
Longitude
108.40386°
Altitude
1,179.179 km
Speed
7.243 km/s
Apparent Right ascension
00h 54m 26s
Apparent Declination
-69° 55' 35"
Sunlit
Object is in daylight
Visualization observer readout
Local Sidereal Time
13:28:29
Azimuth
174.229° S
Elevation
-59.659°
Doppler factor
1
Orbital elements
Apogee altitude
1,156.801 km
Perigee altitude
1,053.996 km
Semi-major axis
7,483.535 km
Eccentricity
0.00687
Inclination
89.944°
RAAN
243.2638°
Arg. of periapsis
133.0657°
True anomaly
Unknown
Mean anomaly
355.2602°
Eccentric anomaly
Unknown
Mean motion
3.35261 °/min
Orbital period
107.38 mins
BSTAR
0.00019016
Loading maneuver chart data...
Loading SW <> Apogee altitude chart data...
Loading historical data...
Loading historical data...
Loading historical data...
Loading historical data...
Loading historical data...
Loading historical data...
Loading historical data...

THOR ABLESTAR DEB Visibility forecast

Observer location: undefined°, undefined°

Span
Click to sort rows by Start time (UTC) header in descending order
Start Az.
Max El. time (UTC)
Max El. Az.
Max El.
End time (UTC)
End Az.
13 mins2025-07-02 04:05:30.959Z163.446° S2025-07-02 04:12:30.959Z63.289° ENE41.981°2025-07-02 04:18:30.959Z4.287° NNE
8 mins2025-07-02 05:56:30.959Z246.601° WSW2025-07-02 05:59:30.959Z277.196° WNW18.9°2025-07-02 06:04:30.959Z325.749° NNW
9 mins2025-07-02 15:22:30.959Z33.087° NE2025-07-02 15:26:30.959Z82.381° E26.528°2025-07-02 15:31:30.959Z138.895° SSE
10 mins2025-07-02 17:09:30.959Z340.51° N2025-07-02 17:13:30.959Z288.669° WNW33.34°2025-07-02 17:19:30.959Z214.16° SW
|